sat.trackr.live / text

‹ back to catalog

STARLINK-31213

NORAD 58860 · 2024-019H

PAYLOAD ACTIVE UNKNOWN

§ Identity

Operator
Country
US
Launch date
2024-01-29
Launch site
AFETR
Launch vehicle
Mass (kg)
RCS (m²)

Purposes: comms

External: N2YO · Heavens-Above · Gunter

§ Orbital elements

Epoch: 2026-09-20T22:30:31.746816Z

Period
94.27 min
Inclination
43.0018°
Eccentricity
0.0000470
Mean motion
15.27574390 rev/d
Perigee alt
482.7 km
Apogee alt
483.4 km
Semi-major
6,861.2 km
B*
-1.2630e-5
RAAN
226.2138°
Arg perigee
287.4400°
Mean anomaly
72.6400°
Rev number
14,894

§ Raw data

STARLINK-312131 58860U 24019H   26263.93786744 -.00000609  00000+0 -12630-4 0  99922 58860  43.0018 226.2138 0000470 287.4400  72.6400 15.27574390148943

JSON: /api/v1/satellites/58860 · /tle

For live sub-satellite position, see the globe view (requires WebGL).

§ Visibility from observer

Set your observer location to see the next 7 days of passes ≥ 10°. The values pass through the URL so the page stays shareable.

No JS? Fill the form by hand. The geolocation button needs JavaScript.